Volver al catálogo

THORAD AGENA D DEB

ActivoSSO
NORAD 42512·DEBRIS·🇺🇸 United States

Lanzado Apr 8, 1970 desde Vandenberg Space Force Base

Loading…

Próximos Pases (próximas 24 horas)

TLE

ActualizadoSource: Space-Track

Época: Sep 14, 2026, 10:19 UTC

1 42512U 70025RS  26257.42992559  .00000000  00000-0  74569-4 0  9990
2 42512  99.8023 152.8178 0007630 146.4440 213.7175 13.43838424628325

Sigue THORAD AGENA D DEB en tiempo real con AllMySat

Download on the App Store